Orbital Elements at Epoch 2459200.5 (2020-Dec-17.0) TDB
Reference: JPL 18 (heliocentric ecliptic J2000)
Element | Value | Uncertainty (1-sigma) | Units |
e | .06164514984961962 | 4.0844e-08 | |
a | 3.133213831462377 | 2.6191e-08 | au |
q | 2.940066395310978 | 1.2382e-07 | au |
i | 5.885094039371672 | 4.6089e-06 | deg |
node | 140.3751715084253 | 4.3761e-05 | deg |
peri | 274.3914334800679 | 5.8503e-05 | deg |
M | 183.6592004476818 | 3.8894e-05 | deg |
tp | 2460192.778963412336 (2023-Sep-05.27896341) | 0.00022135 | TDB |
period | 2025.738953976206 5.55 | 2.54e-05 6.954e-08 | d yr |
n | .1777129275681729 | 2.2283e-09 | deg/d |
Q | 3.326361267613776 | 2.7805e-08 | au |
|
| | Orbit Determination Parameters
Additional Information
|